Location: *
(58.7167°N, 26.1833°E)
Time: 20:19:07
(UTC+00:00)

Cosmos 2237 Rocket - Pass Details

Date: 25 August 2019
Orbit: 833 x 852 km, 71.0° (Epoch: 23 October)

Event Time Altitude Azimuth Distance (km) Brightness Sun altitude
Rises 22:09:33 0° 321° (NW) 3,413 6.2 -20.7°
Reaches altitude 10° 22:11:59 10° 322° (NW) 2,477 5.4 -20.7°
Maximum altitude 22:17:42 88° 233° (SW) 857 2.1 -20.7°
Enters shadow 22:20:15 35° 146° (SE) 1,348 2.8 -20.7°
